Dewpoint
-0 -3 -3 -3 -3 -3 -3 -2 2 1 -2 -3 -1 -2 0 1 1 1 1 1 1 1 0 -1 -2 -4 -4 -4 -4 -2 -1 -2 -4 -4 -5 -5 -5 -5 -7 -9 -11 -11 -11 -11
3 -2 -2 -1 -2 -2 -3 -4 -3 -2 -1 -3 -1 1 1 1 1 2 2 1 1 0 -1 -3 -3 -4 -5 -6 -5 -1 -1 -1 -3 -3 -4 -4 -6 -6 -8 -11 -11 -11 -11 -11
7 3 5 8 4 -2 -2 -3 -2 2 -1 -0 1 1 1 1 2 2 1 0 0 -2 -3 -4 -6 -8 -9 -8 -6 -4 -5 -4 -3 -2 -3 -3 -5 -7 -8 -10 -11 -11 -11 -10
7 7 8 0 -3 -3 -2 -3 -3 -3 -1 1 1 1 1 2 2 1 0 -0 -1 -4 -6 -7 -8 -8 -9 -9 -9 -9 -8 -5 -3 -2 -4 -5 -5 -7 -9 -10 -11 -11 -10 -9
8 5 2 1 -1 -0 1 1 -2 1 2 2 1 1 1 1 0 -0 -1 -3 -7 -8 -8 -9 -10 -10 -10 -10 -10 -10 -10 -6 -3 -4 -5 -6 -6 -7 -9 -12 -11 -10 -8 -8
7 7 6 2 -1 -1 -1 4 3 3 3 2 1 4 1 0 -1 -3 -6 -8 -9 -9 -10 -11 -11 -10 -11 -11 -11 -11 -5 -4 -3 -4 -4 -5 -5 -8 -10 -11 -9 -8 -9 -9
6 5 5 -1 -1 -1 3 6 3 4 3 3 2 2 -1 -2 -4 -7 -8 -9 -10 -12 -12 -12 -11 -11 -11 -11 -11 -7 -5 -4 -3 -4 -4 -6 -8 -10 -10 -10 -9 -9 -8 -9
5 7 6 -1 -1 3 4 3 3 3 3 3 3 1 -4 -5 -7 -8 -9 -11 -12 -13 -13 -12 -11 -11 -10 -10 -9 -6 -5 -5 -5 -4 -4 -6 -8 -9 -10 -10 -10 -9 -9 -11
5 5 1 -0 1 3 3 4 3 3 3 2 2 -3 -5 -7 -8 -9 -11 -12 -12 -12 -11 -11 -10 -10 -9 -8 -7 -5 -7 -5 -5 -5 -6 -8 -9 -10 -10 -10 -9 -10 -11 -11
5 1 -1 -0 0 4 4 4 3 3 1 1 -3 -5 -7 -8 -9 -11 -11 -11 -11 -11 -11 -10 -10 -8 -7 -6 -6 -5 -6 -6 -6 -8 -9 -9 -9 -10 -9 -9 -10 -10 -10 -12
3 1 0 2 4 4 3 3 3 1 -2 -4 -5 -6 -8 -10 -10 -10 -10 -10 -10 -10 -10 -9 -8 -7 -6 -6 -6 -6 -6 -7 -8 -7 -8 -8 -9 -9 -9 -9 -9 -10 -12 -11
6 2 3 4 4 3 2 3 2 -3 -4 -5 -6 -9 -10 -10 -10 -10 -10 -10 -10 -10 -8 -7 -6 -6 -6 -6 -7 -7 -8 -9 -7 -8 -9 -8 -8 -8 -9 -9 -9 -11 -10 -11
1 3 4 4 3 3 2 1 -3 -4 -5 -8 -10 -11 -10 -11 -11 -10 -10 -9 -8 -8 -7 -5 -5 -6 -5 -5 -7 -6 -7 -10 -8 -8 -7 -7 -8 -9 -9 -9 -10 -10 -10 -11
3 4 3 3 3 1 -2 -3 -5 -7 -10 -11 -10 -11 -11 -10 -9 -8 -8 -7 -6 -6 -5 -5 -5 -5 -5 -5 -7 -7 -8 -8 -9 -8 -8 -8 -8 -8 -9 -10 -10 -10 -10 -11
3 3 3 2 -0 -1 -4 -7 -10 -11 -10 -10 -11 -10 -8 -8 -7 -7 -7 -8 -5 -6 -5 -5 -5 -5 -6 -6 -7 -8 -7 -8 -8 -9 -8 -8 -9 -9 -9 -10 -10 -11 -10 -11
2 2 2 1 -3 -6 -9 -10 -10 -9 -10 -9 -8 -8 -7 -10 -10 -11 -11 -8 -8 -10 -7 -5 -5 -6 -7 -6 -7 -8 -8 -8 -8 -9 -8 -9 -9 -9 -9 -10 -10 -11 -11 -11
2 -0 -2 -4 -7 -9 -9 -8 -8 -8 -11 -8 -9 -10 -11 -11 -11 -11 -10 -10 -9 -8 -5 -5 -5 -6 -7 -6 -7 -7 -8 -8 -8 -9 -9 -9 -9 -9 -9 -10 -10 -11 -11 -11
-0 -2 -5 -8 -9 -9 -8 -7 -9 -9 -9 -10 -10 -11 -12 -11 -10 -9 -10 -9 -9 -8 -5 -5 -5 -7 -7 -7 -7 -8 -8 -10 -9 -9 -9 -9 -9 -9 -10 -10 -10 -11 -11 -11
-6 -9 -9 -9 -8 -7 -9 -12 -11 -10 -11 -11 -10 -11 -11 -11 -10 -9 -9 -7 -6 -6 -6 -5 -5 -5 -7 -7 -11 -12 -9 -9 -9 -9 -9 -9 -9 -10 -10 -10 -10 -10 -11 -12
-9 -9 -9 -10 -14 -18 -17 -15 -10 -9 -10 -8 -9 -10 -12 -11 -10 -10 -8 -6 -6 -5 -5 -6 -5 -6 -6 -7 -12 -13 -10 -9 -9 -9 -9 -9 -10 -10 -9 -10 -10 -10 -11 -11
-11 -12 -11 -13 -18 -19 -16 -11 -9 -10 -9 -9 -8 -9 -10 -10 -8 -6 -6 -6 -7 -5 -5 -5 -6 -6 -6 -8 -7 -9 -10 -9 -9 -10 -10 -10 -10 -10 -9 -10 -10 -11 -11 -11
-9 -11 -15 -19 -18 -15 -12 -10 -10 -8 -8 -10 -9 -8 -9 -7 -6 -6 -6 -6 -6 -5 -6 -7 -6 -6 -6 -7 -7 -8 -9 -9 -9 -10 -9 -9 -10 -10 -10 -10 -10 -10 -10 -11
-11 -13 -16 -14 -12 -11 -10 -10 -9 -8 -10 -8 -7 -7 -7 -6 -6 -6 -7 -6 -6 -5 -6 -6 -6 -6 -6 -6 -7 -9 -11 -9 -9 -9 -10 -10 -10 -10 -10 -10 -10 -11 -11 -11
-8 -10 -10 -11 -10 -9 -9 -8 -7 -6 -5 -5 -5 -5 -5 -6 -6 -6 -7 -7 -6 -6 -6 -6 -6 -6 -6 -6 -7 -8 -9 -9 -10 -10 -10 -9 -10 -10 -10 -10 -10 -11 -11 -11
-12 -11 -10 -8 -6 -6 -6 -5 -6 -6 -7 -5 -5 -6 -6 -6 -6 -7 -7 -7 -7 -7 -6 -6 -6 -6 -6 -6 -6 -7 -8 -9 -9 -10 -10 -10 -10 -10 -10 -10 -10 -10 -11 -11
-8 -7 -6 -6 -7 -6 -7 -6 -7 -7 -5 -6 -7 -7 -7 -7 -7 -7 -7 -7 -7 -7 -6 -6 -6 -6 -6 -6 -6 -7 -7 -8 -9 -9 -10 -10 -10 -10 -10 -10 -10 -10 -10 -11
-8 -8 -7 -6 -8 -8 -8 -7 -6 -6 -5 -6 -6 -7 -7 -7 -7 -7 -7 -7 -7 -7 -7 -6 -6 -6 -6 -6 -7 -7 -7 -8 -8 -9 -10 -10 -10 -10 -10 -10 -10 -11 -12 -12
Wind_Speed
7 9 8 10 12 12 13 12 9 10 15 10 10 7 17 15 15 15 13 14 17 17 21 20 20 20 21 23 24 24 21 26 23 23 18 14 16 17 19 20 21 20 22 23
3 5 11 14 15 14 14 14 11 11 14 8 10 15 15 13 14 13 15 17 18 20 19 19 20 23 25 28 28 18 23 27 28 23 17 13 20 14 16 20 20 22 22 24
2 11 10 2 3 7 8 8 9 6 9 14 11 13 16 11 11 13 15 18 19 17 19 20 22 25 28 28 29 35 29 23 21 24 21 15 16 11 14 19 21 23 25 22
2 5 3 4 13 11 9 7 8 9 8 8 12 17 16 9 11 14 15 16 16 19 21 21 26 26 27 29 33 35 35 32 29 19 11 15 15 10 14 18 22 24 22 21
1 3 9 9 4 6 5 11 10 7 11 13 17 16 5 10 13 13 14 17 19 23 22 27 24 26 30 33 33 34 40 31 29 19 13 16 13 11 13 21 23 20 21 23
2 2 3 2 7 5 9 7 9 9 11 12 17 5 8 21 18 17 18 20 23 24 26 25 26 28 30 31 33 34 30 30 26 22 13 15 11 12 17 20 18 24 28 28
4 4 6 9 4 5 3 2 8 5 10 11 7 10 16 16 15 17 19 23 26 26 25 25 27 28 28 29 31 28 30 27 23 18 13 11 9 16 18 19 20 22 26 28
3 3 6 1 2 2 7 14 4 6 4 4 10 10 13 14 17 20 22 25 26 28 25 26 27 27 27 27 29 27 30 27 25 21 12 9 13 16 17 19 18 22 26 25
9 5 10 9 5 7 10 9 4 8 8 8 8 11 13 16 19 22 24 26 28 26 28 30 26 26 25 26 25 24 26 22 18 17 12 13 14 18 17 16 18 25 26 27
3 9 12 12 10 2 4 3 2 3 4 7 9 11 14 18 22 23 24 27 25 29 29 27 28 26 25 24 25 21 21 20 16 15 14 13 13 15 14 17 23 25 24 26
8 14 15 3 8 11 4 3 3 5 4 6 9 13 17 21 23 24 25 24 29 27 27 28 28 27 26 25 21 19 18 14 13 13 13 15 14 14 15 19 22 22 23 23
8 11 4 2 8 1 2 3 4 3 5 8 12 16 19 22 23 24 25 28 27 27 28 27 27 27 25 19 19 22 13 13 13 14 12 13 10 13 16 19 19 22 21 24
11 3 4 8 2 4 3 3 2 4 8 12 14 17 20 21 22 25 25 26 27 28 27 27 24 26 21 18 20 17 18 15 12 11 11 11 13 16 19 16 17 19 21 24
0 7 6 1 5 7 4 3 3 6 10 12 16 16 18 20 22 23 25 27 27 27 26 26 21 20 20 15 17 17 14 15 15 11 14 14 14 13 14 16 18 16 20 21
6 3 5 8 7 7 4 2 6 9 12 14 14 16 16 18 23 25 27 28 24 28 29 26 23 24 19 19 18 12 12 19 21 17 10 10 13 13 14 14 15 16 17 16
9 6 8 10 7 3 2 5 8 10 13 14 14 17 17 24 26 29 28 28 32 35 30 26 24 23 16 11 13 10 10 15 19 14 10 11 13 14 14 14 15 15 17 20
11 12 10 7 3 2 4 7 9 11 17 14 18 23 25 27 29 29 32 30 31 30 24 24 23 20 13 14 15 10 12 17 17 14 11 12 14 13 14 15 15 14 16 20
10 9 6 4 1 4 7 10 16 15 17 21 23 23 25 27 30 32 33 31 32 31 26 21 19 17 14 13 14 16 20 19 10 13 13 14 13 15 13 13 15 15 17 17
9 7 3 1 4 9 13 17 17 18 21 23 23 25 28 29 30 32 32 30 29 28 24 20 19 16 13 15 15 16 11 12 13 12 13 15 16 14 13 13 15 17 16 16
6 2 2 6 12 17 19 19 18 20 23 23 23 27 30 31 31 32 29 29 24 22 25 23 21 16 14 15 14 12 10 12 13 13 12 13 15 14 14 16 14 15 16 16
3 7 12 19 23 22 20 19 20 24 22 22 24 28 31 32 29 25 27 28 23 18 21 23 21 17 14 11 15 17 14 12 14 11 12 12 14 16 15 15 13 13 16 16
8 15 22 23 23 23 20 20 23 23 23 23 24 29 29 28 26 25 25 25 25 24 28 27 16 13 15 15 17 18 18 17 14 13 14 14 14 14 17 16 14 14 14 15
17 24 22 21 21 22 23 24 24 21 19 23 26 28 25 25 25 28 33 23 29 23 30 20 13 14 15 16 17 19 18 16 15 14 14 14 15 16 16 17 16 15 14 14
21 22 22 23 23 24 25 21 15 16 21 23 25 24 29 28 28 27 28 29 24 23 24 16 15 17 18 20 20 19 18 16 16 18 18 17 17 17 19 19 17 16 15 14
20 21 22 20 19 22 22 21 18 20 20 22 26 29 24 24 27 29 27 27 25 22 21 18 17 19 21 24 23 21 20 19 18 19 21 21 21 20 19 19 20 17 16 16
18 20 20 21 22 22 22 21 23 23 23 27 31 32 26 23 25 28 28 27 26 22 21 20 20 20 22 24 25 24 24 21 20 21 20 20 20 19 19 19 19 19 18 17
17 18 19 21 23 23 23 25 25 26 26 28 32 31 28 27 23 23 25 26 25 24 22 21 22 23 25 26 27 28 26 24 22 22 22 22 20 20 20 19 19 19 18 18
Wind_Direction
327 314 307 307 298 293 280 270 257 267 273 295 18 356 46 23 2 347 351 351 337 329 323 322 320 318 314 312 309 299 290 303 299 295 285 268 293 302 304 308 310 310 312 313
257 5 345 302 301 285 278 274 277 315 306 25 43 28 17 3 347 355 347 338 331 326 326 324 321 318 321 318 314 300 298 302 295 307 293 300 309 301 305 309 310 310 310 311
276 344 313 6 269 348 334 328 313 290 274 44 34 6 346 346 358 352 334 326 326 323 319 325 327 324 322 324 322 314 318 299 305 291 285 291 297 295 305 307 310 311 311 311
298 316 5 32 328 294 326 304 304 311 55 55 15 350 351 44 9 334 326 325 318 320 324 323 321 320 327 329 324 322 318 304 316 301 300 287 278 299 303 310 309 309 312 306
292 302 291 300 61 22 5 309 309 22 27 2 347 337 6 33 350 338 326 316 322 323 326 324 329 332 331 328 326 326 326 312 319 306 300 294 294 304 314 311 310 305 308 302
122 246 254 339 46 26 313 269 48 27 1 340 332 334 336 344 337 331 327 326 323 328 325 331 331 332 331 330 329 331 337 329 313 293 296 282 285 324 312 315 314 315 314 315
199 245 279 270 5 328 258 29 359 11 350 349 352 347 323 320 323 321 320 323 325 327 332 331 332 327 326 325 329 330 330 329 330 318 315 316 335 313 314 311 317 315 314 319
198 233 255 100 299 219 351 328 7 357 353 321 295 303 314 321 317 319 324 325 328 331 329 330 324 320 322 325 326 321 326 327 317 317 328 332 318 316 313 319 314 308 316 324
188 215 213 314 217 262 257 231 305 290 276 303 282 306 318 314 317 323 324 327 328 327 326 319 319 322 325 327 325 323 319 318 313 313 332 321 317 318 320 314 306 314 322 322
201 252 269 285 305 188 135 114 166 267 283 276 302 313 309 317 323 326 327 326 328 325 319 324 328 329 327 321 315 317 316 319 325 322 320 321 318 318 315 305 313 319 324 329
275 282 286 342 116 133 119 263 244 244 286 307 305 312 322 325 324 325 321 322 323 317 321 323 322 322 320 315 315 316 315 309 328 316 308 311 316 316 322 320 320 321 328 332
260 272 243 107 146 200 309 218 242 301 306 310 318 320 323 328 326 324 324 322 320 320 321 319 317 314 316 308 310 309 309 316 306 313 315 315 311 299 304 311 318 328 334 338
310 342 102 133 139 333 118 143 279 306 302 320 319 329 326 323 321 319 320 319 319 317 313 307 312 315 311 291 314 305 315 326 316 309 304 305 299 300 311 319 327 333 333 338
93 135 118 94 143 158 168 195 257 293 313 323 325 323 321 319 318 318 317 315 312 310 307 315 314 311 306 299 299 295 313 316 305 291 294 295 301 316 321 324 330 333 329 335
154 190 190 173 177 186 197 261 305 310 321 324 323 321 318 317 315 313 311 316 313 308 307 304 302 303 292 283 286 313 310 298 308 310 292 302 314 316 316 317 323 326 323 326
165 185 174 173 169 178 263 298 312 319 322 317 314 309 309 315 319 319 324 319 321 320 318 308 304 313 295 277 285 296 300 293 295 305 292 300 304 307 312 314 317 324 327 319
175 180 173 168 188 275 301 307 308 303 307 307 311 314 316 319 320 323 324 325 324 326 314 307 306 307 282 274 291 287 280 271 284 289 293 289 299 307 305 305 312 320 321 317
172 170 144 156 260 304 302 293 298 305 307 311 312 313 316 321 322 321 322 321 319 321 320 314 315 305 284 282 291 266 268 283 283 284 287 293 295 297 308 310 312 314 317 318
137 136 133 314 312 294 300 303 304 304 310 314 311 314 316 318 318 317 320 319 317 321 323 320 307 291 287 291 291 290 286 289 294 287 283 286 295 303 302 305 303 307 318 320
130 121 263 304 311 315 313 308 304 304 312 311 306 310 314 315 314 315 320 318 316 319 317 317 308 293 281 291 297 303 290 279 292 293 284 282 291 302 296 304 310 310 315 316
259 306 315 319 318 315 310 307 304 308 312 308 308 309 309 310 314 324 318 312 324 322 318 312 310 278 274 293 298 301 304 293 295 289 284 283 286 295 300 302 303 304 304 308
300 314 317 315 312 310 309 306 308 310 310 309 312 312 313 313 319 312 316 311 317 310 315 312 298 266 266 249 260 273 283 283 280 274 274 276 281 283 287 295 296 296 300 303
305 311 310 311 310 307 306 306 305 302 306 317 319 322 325 318 312 312 316 316 309 310 312 304 273 264 268 268 269 276 284 283 283 283 274 275 281 285 288 292 291 291 296 300
301 305 306 306 303 301 304 313 310 309 308 314 315 319 315 311 309 308 313 312 315 313 311 295 266 263 265 265 269 275 281 288 278 278 276 274 276 279 283 292 293 295 294 294
298 304 307 311 308 304 305 304 296 289 301 302 303 314 316 307 302 308 313 319 317 313 310 300 281 267 264 263 268 274 278 286 281 280 268 267 265 263 267 274 280 285 288 290
309 307 304 299 301 304 303 293 287 296 295 300 313 321 319 310 307 310 311 314 318 309 307 300 292 287 276 267 267 274 272 278 281 285 276 271 267 267 267 266 267 276 283 286
310 310 307 303 306 301 298 296 291 283 293 306 313 322 318 317 321 318 315 314 316 319 302 299 295 289 283 277 275 276 271 274 279 284 274 272 269 267 268 267 269 272 277 281
Height
1538 1536 1534 1533 1532 1530 1531 1530 1540 1535 1530 1526 1530 1534 1538 1540 1540 1540 1540 1541 1541 1540 1538 1536 1533 1530 1528 1524 1521 1518 1512 1513 1507 1503 1497 1492 1493 1493 1494 1492 1490 1487 1484 1482
1545 1533 1537 1538 1534 1531 1527 1525 1525 1527 1530 1526 1532 1537 1539 1540 1541 1541 1542 1541 1540 1538 1536 1533 1531 1528 1525 1521 1516 1513 1508 1506 1503 1497 1497 1492 1488 1487 1489 1488 1486 1483 1480 1477
1551 1547 1545 1546 1535 1527 1525 1524 1527 1534 1530 1531 1535 1538 1539 1539 1540 1541 1542 1540 1538 1536 1533 1531 1528 1525 1521 1518 1513 1508 1502 1499 1495 1487 1488 1488 1487 1481 1483 1483 1482 1479 1476 1473
1559 1555 1552 1528 1527 1525 1527 1524 1526 1525 1528 1536 1540 1541 1539 1540 1542 1542 1541 1539 1536 1533 1531 1528 1525 1522 1517 1513 1509 1505 1500 1494 1487 1484 1482 1484 1482 1476 1477 1479 1477 1474 1471 1468
1562 1555 1543 1530 1528 1533 1535 1535 1530 1530 1535 1538 1540 1540 1540 1542 1542 1541 1539 1536 1534 1531 1528 1524 1521 1517 1513 1510 1507 1501 1495 1488 1483 1480 1478 1480 1479 1474 1473 1474 1472 1469 1466 1463
1566 1562 1555 1531 1529 1533 1533 1537 1535 1538 1540 1542 1540 1541 1541 1541 1540 1538 1536 1533 1530 1527 1525 1521 1517 1514 1511 1508 1503 1499 1491 1486 1481 1479 1476 1475 1472 1472 1472 1470 1468 1464 1461 1458
1558 1560 1547 1531 1531 1533 1540 1542 1537 1539 1540 1540 1542 1544 1541 1539 1538 1536 1534 1531 1528 1525 1521 1517 1514 1512 1508 1503 1500 1494 1487 1483 1479 1474 1470 1470 1469 1469 1469 1467 1464 1460 1456 1454
1555 1557 1549 1530 1531 1538 1534 1534 1536 1538 1539 1539 1539 1539 1537 1536 1535 1533 1531 1528 1525 1521 1517 1513 1511 1507 1503 1499 1494 1489 1484 1480 1477 1474 1471 1468 1467 1468 1466 1463 1459 1456 1453 1450
1538 1534 1526 1526 1527 1530 1531 1533 1534 1536 1535 1535 1535 1535 1534 1533 1532 1530 1527 1524 1521 1518 1514 1511 1507 1503 1498 1493 1488 1484 1481 1477 1474 1471 1469 1467 1466 1465 1462 1459 1456 1454 1450 1447
1526 1522 1522 1523 1524 1526 1529 1531 1532 1534 1532 1533 1532 1533 1532 1530 1528 1525 1523 1521 1517 1514 1510 1507 1503 1498 1494 1488 1484 1480 1477 1474 1472 1470 1468 1466 1464 1462 1459 1456 1454 1451 1448 1443
1517 1516 1517 1519 1521 1523 1526 1528 1529 1530 1531 1531 1531 1530 1528 1526 1524 1521 1519 1516 1513 1509 1505 1501 1498 1493 1488 1484 1480 1477 1475 1472 1469 1467 1465 1463 1461 1460 1457 1455 1452 1449 1445 1441
1516 1513 1514 1518 1521 1522 1523 1526 1528 1528 1529 1529 1528 1527 1525 1522 1521 1518 1514 1512 1509 1505 1501 1497 1493 1488 1484 1480 1477 1474 1471 1469 1467 1464 1463 1461 1460 1458 1455 1453 1449 1446 1442 1438
1512 1513 1515 1517 1520 1521 1523 1524 1526 1528 1528 1526 1526 1523 1522 1519 1517 1514 1512 1509 1504 1500 1495 1490 1487 1483 1479 1476 1473 1471 1468 1466 1464 1462 1460 1458 1457 1455 1452 1450 1447 1444 1440 1436
1509 1511 1514 1516 1517 1520 1520 1521 1523 1524 1524 1524 1522 1520 1518 1516 1514 1511 1507 1504 1499 1494 1489 1484 1481 1479 1474 1472 1470 1468 1465 1464 1461 1460 1458 1456 1454 1452 1450 1448 1445 1443 1439 1436
1507 1509 1511 1513 1515 1517 1519 1520 1521 1522 1521 1520 1518 1517 1515 1512 1509 1505 1501 1496 1492 1488 1483 1478 1475 1472 1470 1468 1466 1464 1463 1460 1458 1455 1454 1453 1451 1450 1448 1446 1444 1442 1439 1436
1506 1509 1511 1513 1514 1516 1517 1519 1519 1518 1517 1515 1514 1512 1510 1507 1503 1499 1494 1490 1485 1478 1474 1472 1468 1466 1464 1464 1462 1461 1460 1457 1455 1452 1451 1451 1449 1447 1446 1444 1442 1440 1437 1433
1504 1507 1509 1512 1514 1515 1516 1516 1516 1514 1512 1511 1509 1507 1504 1500 1496 1492 1488 1484 1479 1474 1470 1466 1463 1461 1460 1459 1458 1458 1457 1454 1452 1450 1449 1448 1446 1445 1443 1441 1439 1437 1435 1431
1503 1506 1508 1511 1513 1514 1514 1513 1511 1510 1508 1506 1503 1501 1497 1494 1490 1485 1481 1476 1471 1467 1464 1461 1458 1456 1455 1454 1453 1452 1450 1448 1448 1447 1446 1445 1444 1442 1440 1438 1436 1434 1432 1430
1504 1508 1510 1511 1511 1510 1510 1508 1507 1505 1503 1500 1498 1495 1492 1488 1484 1479 1474 1470 1466 1462 1458 1456 1454 1452 1451 1450 1448 1447 1446 1445 1444 1443 1443 1442 1440 1439 1437 1436 1434 1432 1430 1427
1505 1507 1508 1509 1508 1507 1505 1503 1501 1499 1497 1495 1492 1489 1485 1482 1477 1472 1467 1464 1462 1458 1455 1451 1449 1447 1447 1446 1444 1443 1442 1442 1441 1440 1439 1438 1437 1436 1435 1432 1430 1429 1427 1425
1503 1504 1505 1504 1503 1501 1500 1498 1496 1494 1492 1490 1487 1483 1479 1474 1470 1468 1464 1459 1456 1454 1450 1447 1444 1443 1443 1442 1441 1440 1439 1438 1437 1436 1436 1435 1434 1433 1431 1429 1428 1426 1424 1422
1501 1501 1501 1500 1498 1496 1495 1493 1491 1489 1486 1484 1482 1478 1473 1468 1466 1462 1461 1456 1451 1448 1444 1440 1438 1438 1438 1439 1439 1437 1436 1434 1433 1433 1432 1431 1430 1429 1427 1425 1424 1422 1421 1419
1498 1497 1496 1494 1493 1491 1489 1488 1485 1483 1481 1479 1475 1472 1467 1465 1463 1458 1452 1451 1446 1442 1438 1434 1433 1433 1434 1433 1433 1433 1431 1430 1429 1428 1427 1426 1426 1425 1423 1421 1419 1418 1416 1414
1494 1493 1491 1489 1488 1486 1483 1481 1479 1477 1475 1473 1470 1467 1465 1459 1455 1454 1450 1444 1440 1436 1432 1430 1429 1429 1429 1428 1428 1427 1426 1425 1424 1423 1422 1421 1421 1420 1418 1417 1415 1413 1412 1410
1490 1488 1486 1483 1482 1480 1478 1477 1475 1473 1471 1468 1466 1462 1458 1455 1452 1446 1443 1438 1434 1430 1427 1425 1424 1423 1422 1422 1421 1421 1420 1419 1418 1417 1416 1415 1414 1414 1413 1412 1411 1409 1408 1406
1484 1483 1481 1480 1478 1475 1473 1471 1469 1467 1464 1461 1458 1455 1451 1448 1445 1440 1436 1432 1428 1425 1422 1420 1418 1417 1416 1415 1414 1414 1413 1412 1411 1410 1409 1408 1407 1407 1406 1406 1405 1404 1403 1401
1480 1479 1477 1475 1472 1470 1468 1466 1463 1460 1459 1456 1451 1448 1445 1441 1437 1434 1430 1426 1423 1419 1416 1414 1412 1411 1410 1409 1407 1406 1406 1405 1404 1403 1402 1401 1400 1400 1400 1399 1399 1398 1397 1396